• Join FlightAware (Why Join?)
  • Login
  • US Flag GB Flag 
17:47 EDT


 

Airport Tracker/Info


-or-


 

Live Flight TrackerFlight Track Log ✈ VIR19 ✈ 28-Oct-2013 ✈ EGLL / LHR - KSFO

Flight Track Log - Related Links

Times and Time Zones

All times are in EDT time to prevent confusion due to time zone crossing. See the VIR19 flight status page for this flight to view local times or setup timezone preferences in your user account.

Time Position Orientation Groundspeed Altitude Reporting Facility
EDT Latitude Longitude Course Direction KTS MPH feet Rate Location/Type
07:19 51.4777 -0.4788 271° West 1 1 800  Level FlightAware UK
07:19 51.4778 -0.4909 270° West 158 182 1,400 2,280 Climbing FlightAware ADS-B
07:20 51.4778 -0.4909 270° West 166 191 2,100 1,680 Climbing FlightAware ADS-B
07:20 51.4775 -0.5389 269° West 177 204 2,500 1,560 Climbing FlightAware ADS-B (EGLF / FAB)
07:20 51.4775 -0.5390 270° West 184 212 2,600 1,320 Climbing FlightAware ADS-B
07:20 51.4790 -0.5510 282° West 190 219 2,700 1,500 Climbing FlightAware ADS-B
07:20 51.4808 -0.5578 293° West 197 227 2,900 1,500 Climbing FlightAware ADS-B
07:20 51.4830 -0.5658 293° West 206 237 3,000 1,140 Climbing FlightAware ADS-B (EGLF / FAB)
07:21 51.4905 -0.5878 299° West 216 249 3,300 900 Climbing FlightAware ADS-B
07:21 51.4914 -0.5905 299° West 222 255 3,300  Level FlightAware ADS-B (EGLF / FAB)
07:21 51.4939 -0.5979 298° West 226 260 3,300 960 Level FlightAware ADS-B
07:21 51.4981 -0.6116 296° West 231 266 3,500 1,500 Climbing FlightAware ADS-B
07:21 51.4996 -0.6161 299° West 232 267 3,600 1,500 Climbing FlightAware ADS-B (EPRZ / RZE)
07:21 51.5019 -0.6223 300° West 233 268 3,700 2,280 Climbing FlightAware ADS-B
07:21 51.5099 -0.6428 302° West 232 267 4,300 2,280 Climbing FlightAware ADS-B
07:21 51.5125 -0.6484 307° West 235 270 4,400 1,680 Climbing FlightAware ADS-B
07:21 51.5142 -0.6525 304° West 236 272 4,500 2,520 Climbing FlightAware ADS-B (EGLF / FAB)
07:21 51.5180 -0.6588 314° West 241 277 4,700 2,520 Climbing FlightAware ADS-B
07:21 51.5206 -0.6624 319° Northwest 243 280 4,800 3,000 Climbing FlightAware ADS-B
07:22 51.5214 -0.6635 319° Northwest 245 282 4,900 2,400 Climbing FlightAware ADS-B
07:22 51.5255 -0.6678 327° Northwest 247 284 5,000 960 Climbing FlightAware ADS-B
07:22 51.5260 -0.6688 310° West 249 287 5,000 1,200 Level FlightAware ADS-B (EPRZ / RZE)
07:22 51.5301 -0.6716 337° Northwest 254 292 5,100 1,200 Climbing FlightAware ADS-B
07:22 51.5295 -0.6716 180° South 257 296 5,100 1,500 Level FlightAware ADS-B
07:22 51.5349 -0.6754 336° Northwest 263 303 5,200 1,200 Climbing FlightAware ADS-B
07:22 51.5385 -0.6772 343° North 268 308 5,200 840 Level FlightAware ADS-B
07:22 51.5430 -0.6788 348° North 277 319 5,300 1,620 Climbing FlightAware ADS-B
07:22 51.5522 -0.6794 357° North 287 330 5,500 1,800 Climbing FlightAware ADS-B
07:22 51.5565 -0.6788 North 293 337 5,600 1,200 Climbing FlightAware ADS-B
07:22 51.5586 -0.6784 North 295 339 5,600 2,400 Level FlightAware ADS-B
07:22 51.5635 -0.6766 13° North 297 342 5,800 3,000 Climbing FlightAware ADS-B
07:22 51.5693 -0.6742 14° North 300 345 6,000 1,980 Climbing FlightAware ADS-B
07:22 51.5699 -0.6737 31° Northeast 300 345 6,000 1,200 Level FlightAware ADS-B
07:22 51.5834 -0.6667 18° North 309 356 6,200 1,380 Climbing FlightAware ADS-B
07:22 51.5907 -0.6628 18° North 310 357 6,400 2,220 Climbing FlightAware ADS-B
07:23 51.6053 -0.6539 21° North 314 361 6,800 2,820 Climbing FlightAware ADS-B
07:23 51.6174 -0.6464 21° North 314 361 7,200 2,580 Climbing FlightAware ADS-B
07:23 51.6271 -0.6403 21° North 315 362 7,500 2,400 Climbing FlightAware ADS-B
07:23 51.6374 -0.6335 22° Northeast 316 364 7,800 2,400 Climbing FlightAware ADS-B (EPRZ / RZE)
07:23 51.6471 -0.6276 21° North 316 364 8,100 2,400 Climbing FlightAware ADS-B
07:23 51.6566 -0.6219 20° North 316 364 8,400 2,400 Climbing FlightAware ADS-B (EGLC / LCY)
07:23 51.6677 -0.6155 20° North 317 365 8,700 2,100 Climbing FlightAware ADS-B
07:24 51.6856 -0.6048 20° North 321 369 9,100 1,860 Climbing FlightAware ADS-B (EGLC / LCY)
07:24 51.6898 -0.6023 20° North 321 369 9,200 1,980 Climbing FlightAware ADS-B
07:24 51.7067 -0.5925 20° North 325 374 9,600 1,980 Climbing FlightAware ADS-B (EPRZ / RZE)
07:24 51.7105 -0.5910 14° North 325 374 9,700 1,500 Climbing FlightAware ADS-B
07:24 51.7113 -0.5903 32° Northeast 324 373 9,700 1,980 Level FlightAware ADS-B
07:24 51.7158 -0.5882 16° North 324 373 9,800 1,980 Climbing FlightAware ADS-B
07:24 51.7217 -0.5862 12° North 321 369 9,900 840 Climbing FlightAware ADS-B
07:24 51.7262 -0.5852 North 321 369 9,900 1,200 Level FlightAware ADS-B
07:24 51.7274 -0.5850 North 320 368 10,000 1,200 Climbing FlightAware ADS-B (EGLC / LCY)
07:24 51.7324 -0.5846 North 320 368 10,000 960 Level FlightAware ADS-B
07:24 51.7374 -0.5848 359° North 319 367 10,100 1,440 Climbing FlightAware ADS-B
07:25 51.7779 -0.5901 355° North 331 381 10,800 1,320 Climbing FlightAware ADS-B (EGWE)
07:25 51.7832 -0.5907 356° North 333 383 10,800 1,500 Level FlightAware ADS-B
07:25 51.8335 -0.5980 355° North 348 400 11,600 1,740 Climbing FlightAware ADS-B
07:26 51.8836 -0.6056 355° North 356 410 12,600 1,860 Climbing FlightAware ADS-B
07:26 51.9358 -0.6150 354° North 362 417 13,600 1,920 Climbing FlightAware ADS-B
07:26 51.9391 -0.6156 353° North 362 417 13,700 1,980 Climbing FlightAware ADS-B (EPRZ / RZE)
07:26 51.9526 -0.6187 352° North 362 417 14,000 1,800 Climbing FlightAware ADS-B
07:27 51.9612 -0.6217 348° North 360 414 14,100 2,160 Climbing FlightAware ADS-B
07:27 51.9730 -0.6286 340° North 357 411 14,400 1,980 Climbing FlightAware ADS-B
07:27 51.9841 -0.6368 335° Northwest 353 406 14,600 2,220 Climbing FlightAware ADS-B
07:27 51.9854 -0.6381 329° Northwest 353 406 14,700 1,080 Climbing FlightAware ADS-B (EPRZ / RZE)
07:27 51.9991 -0.6517 329° Northwest 357 411 14,800 900 Climbing FlightAware ADS-B
07:27 52.0362 -0.6894 328° Northwest 376 433 15,300 960 Climbing FlightAware ADS-B (EPRZ / RZE)
07:27 52.0427 -0.6954 331° Northwest 373 429 15,300 540 Level FlightAware ADS-B
07:28 52.0562 -0.7088 328° Northwest 384 442 15,400 780 Climbing FlightAware ADS-B
07:28 52.0886 -0.7412 329° Northwest 396 456 15,700 1,020 Climbing FlightAware ADS-B
07:28 52.0850 -0.7380 151° Southeast 395 455 16,000 1,500 Climbing FlightAware ADS-B (EGWE)
07:28 52.1372 -0.7907 328° Northwest 404 465 16,500 1,800 Climbing FlightAware ADS-B
07:29 52.1562 -0.8102 328° Northwest 406 467 16,900 1,740 Climbing FlightAware ADS-B (EGWE)
07:29 52.1859 -0.8413 327° Northwest 409 471 17,400 1,500 Climbing FlightAware ADS-B
07:29 52.1761 -0.8314 148° Southeast 412 474 17,800 1,500 Climbing FlightAware ADS-B
07:30 52.2361 -0.8901 329° Northwest 416 479 18,200 1,620 Climbing FlightAware ADS-B
07:30 52.2538 -0.9084 328° Northwest 418 481 18,700 1,740 Climbing FlightAware ADS-B (EGTC)
07:30 52.2874 -0.9436 327° Northwest 421 484 19,100 1,980 Climbing FlightAware ADS-B
07:30 52.3185 -0.9757 328° Northwest 426 490 20,000 1,860 Climbing FlightAware ADS-B (EGTC)
07:31 52.3401 -0.9960 330° Northwest 427 491 20,100 1,800 Climbing FlightAware ADS-B
07:31 52.3697 -1.0266 328° Northwest 431 496 20,700 1,860 Climbing FlightAware ADS-B (EGXW / WTN)
07:31 52.3943 -1.0504 329° Northwest 433 498 21,100 1,860 Climbing FlightAware ADS-B
07:31 52.4165 -1.0729 328° Northwest 436 502 21,700 1,980 Climbing FlightAware ADS-B
07:31 52.4317 -1.0884 328° Northwest 436 502 21,800 1,680 Climbing FlightAware ADS-B (EGDM)
07:32 52.4473 -1.1040 329° Northwest 441 507 22,100 1,860 Climbing FlightAware ADS-B
07:32 52.4588 -1.1162 327° Northwest 435 501 22,300 1,800 Climbing FlightAware ADS-B
07:32 52.4936 -1.1513 328° Northwest 436 502 22,900 1,620 Climbing FlightAware ADS-B
07:32 52.5095 -1.1671 329° Northwest 447 514 23,100 1,740 Climbing FlightAware ADS-B
07:33 52.5540 -1.2112 329° Northwest 454 522 23,900 1,860 Climbing FlightAware ADS-B
07:33 52.5723 -1.2256 334° Northwest 459 528 24,200 1,740 Climbing FlightAware ADS-B
07:33 52.5864 -1.2375 333° Northwest 462 532 24,400 1,620 Climbing FlightAware ADS-B
07:33 52.6089 -1.2532 337° Northwest 458 527 24,700 1,560 Climbing FlightAware ADS-B
07:33 52.6322 -1.2701 336° Northwest 468 539 25,000 1,560 Climbing FlightAware ADS-B
07:34 52.6685 -1.2951 337° Northwest 473 544 25,500 1,500 Climbing FlightAware ADS-B
07:34 52.6891 -1.3089 338° Northwest 468 539 25,700 1,380 Climbing FlightAware ADS-B
07:34 52.6944 -1.3130 335° Northwest 476 548 25,800 1,260 Climbing FlightAware ADS-B
07:34 52.7557 -1.3552 337° Northwest 487 560 26,400 1,260 Climbing FlightAware ADS-B
07:34 52.7620 -1.3594 338° Northwest 486 559 26,500 1,500 Climbing FlightAware ADS-B
07:35 52.7871 -1.3765 338° Northwest 490 564 26,800 1,320 Climbing FlightAware ADS-B
07:35 52.8261 -1.4025 338° Northwest 493 567 27,200 1,500 Climbing FlightAware ADS-B
07:35 52.8312 -1.4069 333° Northwest 494 568 27,300 1,980 Climbing FlightAware ADS-B
07:35 52.8379 -1.4112 339° North 494 568 27,400 1,560 Climbing FlightAware ADS-B (EGGP / LPL)
07:35 52.8951 -1.4508 337° Northwest 497 572 28,100 1,500 Climbing FlightAware ADS-B
07:35 52.9061 -1.4581 338° Northwest 498 573 28,200 1,620 Climbing FlightAware ADS-B (EGBS)
07:36 52.9709 -1.5039 337° Northwest 498 573 29,100 1,740 Climbing FlightAware ADS-B (EGBS)
07:36 52.9782 -1.5083 340° North 499 574 29,200 1,380 Climbing FlightAware ADS-B
07:36 53.0325 -1.5471 337° Northwest 501 577 29,800 1,320 Climbing FlightAware ADS-B (EGBS)
07:37 53.0438 -1.5546 338° Northwest 501 577 29,900 1,380 Climbing FlightAware ADS-B
07:37 53.1078 -1.5998 337° Northwest 504 580 30,600 1,320 Climbing FlightAware ADS-B (EGXW / WTN)
07:37 53.1287 -1.6135 339° North 504 580 30,800 1,260 Climbing FlightAware ADS-B
07:38 53.1853 -1.6544 337° Northwest 505 581 31,400 1,380 Climbing FlightAware ADS-B (EGBS)
07:38 53.2112 -1.6727 337° Northwest 506 582 31,700 1,080 Climbing FlightAware ADS-B
07:38 53.2587 -1.7063 337° Northwest 505 581 32,000 540 Climbing FlightAware ADS-B
07:38 53.2792 -1.7200 338° Northwest 507 583 32,000  Level FlightAware ADS-B
07:39 53.3228 -1.7522 336° Northwest 506 582 32,000  Level FlightAware ADS-B (EGXW / WTN)
07:39 53.3453 -1.7675 338° Northwest 506 582 32,000  Level FlightAware ADS-B
07:39 53.3894 -1.7997 336° Northwest 505 581 32,000  Level FlightAware ADS-B (EGXW / WTN)
07:40 53.4585 -1.8490 337° Northwest 504 580 32,000  Level FlightAware ADS-B (EGGP / LPL)
07:40 53.4827 -1.8657 338° Northwest 504 580 32,000  Level FlightAware ADS-B
07:40 53.5225 -1.8950 336° Northwest 501 577 32,000  Level FlightAware ADS-B (EGGP / LPL)
07:40 53.5480 -1.9133 337° Northwest 501 577 32,000  Level FlightAware ADS-B
07:41 53.5944 -1.9470 337° Northwest 501 577 32,000  Level FlightAware ADS-B (EGGP / LPL)
07:41 53.6635 -1.9963 337° Northwest 502 578 32,000  Level FlightAware ADS-B
07:42 53.7080 -2.0287 337° Northwest 494 568 32,000  Level FlightAware ADS-B
07:42 53.7321 -2.0457 337° Northwest 494 568 32,000  Level FlightAware ADS-B (EGFH / SWS)
07:42 53.7638 -2.0690 337° Northwest 495 570 32,000  Level FlightAware ADS-B
07:43 53.8332 -2.1204 336° Northwest 502 578 32,000  Level FlightAware ADS-B
07:43 53.9009 -2.1702 337° Northwest 502 578 32,000  Level FlightAware ADS-B (EGXW / WTN)
07:44 53.9665 -2.2170 337° Northwest 502 578 32,000  Level FlightAware ADS-B (EGXW / WTN)
07:44 53.9929 -2.2381 335° Northwest 496 571 32,000  Level FlightAware ADS-B (EGBS)
07:45 54.0864 -2.3185 333° Northwest 496 571 32,000  Level FlightAware ADS-B
07:45 54.0823 -2.3150 153° Southeast 496 571 32,000  Level FlightAware ADS-B
07:45 54.1683 -2.3879 334° Northwest 496 571 32,000  Level FlightAware ADS-B
07:46 54.2107 -2.4224 335° Northwest 490 564 32,000  Level FlightAware ADS-B
07:46 54.2731 -2.4743 334° Northwest 496 571 32,000  Level FlightAware ADS-B
07:47 54.3363 -2.5278 334° Northwest 498 573 32,000  Level FlightAware ADS-B
07:47 54.4161 -2.5958 334° Northwest 500 575 32,000  Level FlightAware ADS-B
07:48 54.4801 -2.6497 334° Northwest 498 573 32,000  Level FlightAware ADS-B
07:48 54.5404 -2.7005 334° Northwest 499 574 32,000  Level FlightAware ADS-B
07:49 54.6026 -2.7533 334° Northwest 499 574 32,000  Level FlightAware ADS-B
07:50 54.6850 -2.8243 334° Northwest 501 577 32,000  Level FlightAware ADS-B
07:50 54.7501 -2.8795 334° Northwest 503 579 32,000  Level FlightAware ADS-B
07:51 54.8147 -2.9352 334° Northwest 502 578 32,000  Level FlightAware ADS-B
07:51 54.8866 -2.9981 333° Northwest 502 578 32,000  Level FlightAware ADS-B
07:52 54.9544 -3.0576 333° Northwest 501 577 32,000  Level FlightAware ADS-B
07:52 55.0183 -3.1120 334° Northwest 501 577 32,000  Level FlightAware ADS-B
07:53 55.0910 -3.1772 333° Northwest 501 577 32,000  Level FlightAware ADS-B
07:53 55.1712 -3.2477 333° Northwest 492 566 32,000  Level FlightAware UK
07:54 55.2133 -3.2847 333° Northwest 500 575 32,000  Level FlightAware ADS-B
07:54 55.2856 -3.3482 333° Northwest 496 571 32,000  Level FlightAware ADS-B
07:55 55.3638 -3.4172 333° Northwest 494 568 32,000  Level FlightAware ADS-B
07:56 55.4268 -3.4736 333° Northwest 494 568 32,000  Level FlightAware ADS-B
07:56 55.4907 -3.5321 333° Northwest 495 570 32,000  Level FlightAware ADS-B
07:57 55.5503 -3.5852 333° Northwest 494 568 32,000  Level FlightAware ADS-B
07:57 55.6544 -3.6790 333° Northwest 494 568 32,000  Level FlightAware ADS-B
07:58 55.7213 -3.7410 333° Northwest 488 562 32,000  Level FlightAware UK
07:58 55.7824 -3.7966 333° Northwest 492 566 32,000  Level FlightAware UK
07:59 55.8132 -3.8234 333° Northwest 488 562 32,000  Level FlightAware ADS-B
07:59 55.8860 -3.8903 333° Northwest 493 567 32,000  Level FlightAware ADS-B
08:00 55.9959 -3.9912 333° Northwest 493 567 32,000  Level FlightAware ADS-B
08:01 56.0578 -4.0493 332° Northwest 495 570 32,000  Level FlightAware ADS-B
08:01 56.1171 -4.1040 333° Northwest 493 567 32,000  Level FlightAware ADS-B
08:02 56.1749 -4.1586 332° Northwest 492 566 32,000  Level FlightAware ADS-B
08:02 56.2448 -4.2247 332° Northwest 492 566 32,000  Level FlightAware ADS-B (EGPD / ABZ)
08:03 56.3064 -4.2816 333° Northwest 493 567 32,000  Level FlightAware ADS-B (EGPD / ABZ)
08:03 56.3788 -4.3502 332° Northwest 492 566 32,000  Level FlightAware ADS-B (EGPD / ABZ)
08:04 56.4425 -4.4111 332° Northwest 492 566 32,000  Level FlightAware ADS-B (EGPD / ABZ)
08:04 56.5120 -4.4763 333° Northwest 493 567 32,000  Level FlightAware ADS-B (EGPD / ABZ)
08:05 56.5725 -4.5338 332° Northwest 491 565 32,000  Level FlightAware ADS-B (EGPD / ABZ)
08:06 56.6561 -4.6147 332° Northwest 489 563 32,000  Level FlightAware ADS-B (EGPD / ABZ)
08:06 56.7161 -4.6724 332° Northwest 488 562 32,000  Level FlightAware ADS-B (EGPD / ABZ)
08:06 56.7131 -4.6703 160° South 488 562 32,000  Level FlightAware ADS-B
08:07 56.7955 -4.7494 160° South 480 552 32,000  Level FlightAware ADS-B (EGPD / ABZ)
08:07 56.8088 -4.7635 160° South 486 559 32,000  Level FlightAware UK
08:07 56.8695 -4.8209 332° Northwest 489 563 32,000  Level FlightAware ADS-B (EGPD / ABZ)
08:08 56.9296 -4.8812 331° Northwest 489 563 32,000  Level FlightAware ADS-B (EGPD / ABZ)
08:09 57.0115 -4.9616 331° Northwest 490 564 32,000  Level FlightAware UK
08:09 57.0190 -4.9670 331° Northwest 486 559 32,000  Level FlightAware
08:09 57.0829 -5.0321 331° Northwest 488 562 32,000  Level FlightAware UK
08:09 57.0960 -5.0430 330° Northwest 486 559 32,000  Level FlightAware
08:10 57.1409 -5.0941 330° Northwest 486 559 32,000  Level FlightAware UK
08:10 57.1630 -5.1170 330° Northwest 484 557 32,000  Level FlightAware
08:10 57.2094 -5.1719 330° Northwest 488 562 32,000  Level FlightAware UK
08:11 57.2300 -5.1930 330° Northwest 483 556 32,000  Level FlightAware
08:11 57.2665 -5.2366 330° Northwest 486 559 32,000  Level FlightAware UK
08:12 57.3465 -5.3262 330° Northwest 490 564 32,000  Level FlightAware UK
08:12 57.3610 -5.3410 329° Northwest 484 557 32,000  Level FlightAware
08:12 57.4040 -5.3904 329° Northwest 486 559 32,000  Level FlightAware UK
08:12 57.4320 -5.4200 329° Northwest 485 558 32,000  Level FlightAware
08:13 57.4961 -5.4934 329° Northwest 490 564 32,000  Level FlightAware UK
08:13 57.5070 -5.5040 329° Northwest 477 549 32,000  Level FlightAware
08:13 57.5534 -5.5586 329° Northwest 486 559 32,000  Level FlightAware UK
08:13 57.5660 -5.5710 329° Northwest 475 547 32,000  Level FlightAware
08:14 57.6447 -5.6625 329° Northwest 484 557 32,000  Level FlightAware UK
08:14 57.6410 -5.6580 329° Northwest 474 545 32,000  Level FlightAware
08:15 57.7016 -5.7274 329° Northwest 486 559 32,000  Level FlightAware UK
08:15 57.7160 -5.7420 329° Northwest 475 547 32,000  Level FlightAware
08:15 57.7586 -5.7925 329° Northwest 484 557 32,000  Level FlightAware UK
08:15 57.7920 -5.8290 329° Northwest 475 547 32,000  Level FlightAware
08:16 57.8156 -5.8581 329° Northwest 484 557 32,000  Level FlightAware UK
08:16 57.8750 -5.9260 329° Northwest 475 547 32,000  Level FlightAware
08:16 57.8840 -5.9374 329° Northwest 484 557 32,000  Level FlightAware UK
08:17 57.9409 -6.0036 329° Northwest 490 564 32,000  Level FlightAware UK
08:17 57.9430 -6.0050 329° Northwest 477 549 32,000  Level FlightAware
08:17 57.9980 -6.0700 328° Northwest 476 548 32,000  Level FlightAware
08:18 58.0740 -6.1580 328° Northwest 474 545 32,000  Level FlightAware
08:18 58.1117 -6.2030 328° Northwest 490 564 32,000  Level FlightAware UK
08:19 58.1610 -6.2600 328° Northwest 473 544 32,000  Level FlightAware
08:19 58.1679 -6.2693 328° Northwest 490 564 32,000  Level FlightAware UK
08:19 58.2238 -6.3363 328° Northwest 486 559 32,000  Level FlightAware UK
08:19 58.2360 -6.3490 328° Northwest 478 550 32,000  Level FlightAware
08:20 58.3018 -6.4295 328° Northwest 486 559 32,000  Level FlightAware UK
08:21 58.3691 -6.5093 328° Northwest 486 559 32,000  Level FlightAware UK
08:21 58.3670 -6.5050 328° Northwest 477 549 32,000  Level FlightAware
08:21 58.4251 -6.5764 328° Northwest 486 559 32,000  Level FlightAware UK
08:21 58.4410 -6.5950 328° Northwest 476 548 32,000  Level FlightAware
08:22 58.4807 -6.6438 328° Northwest 488 562 32,000  Level FlightAware UK
08:22 58.5070 -6.6730 328° Northwest 476 548 32,000  Level FlightAware
08:22 58.5367 -6.7114 328° Northwest 488 562 32,000  Level FlightAware UK
08:23 58.5925 -6.7792 328° Northwest 486 559 32,000  Level FlightAware UK
08:23 58.6380 -6.8340 328° Northwest 475 547 32,000  Level FlightAware
08:23 58.6484 -6.8469 328° Northwest 486 559 32,000  Level FlightAware UK
08:24 58.7039 -6.9150 328° Northwest 486 559 32,000  Level FlightAware UK
08:24 58.7110 -6.9220 328° Northwest 476 548 32,000  Level FlightAware
08:24 58.7595 -6.9831 328° Northwest 486 559 32,000  Level FlightAware UK
08:25 58.8150 -7.0516 328° Northwest 484 557 32,000  Level FlightAware UK
08:25 58.8420 -7.0840 327° Northwest 477 549 32,000  Level FlightAware
08:25 58.8707 -7.1206 327° Northwest 488 562 32,000  Level FlightAware UK
08:26 58.9180 -7.1790 327° Northwest 479 551 32,000  Level FlightAware
08:26 58.9265 -7.1897 327° Northwest 488 562 32,000  Level FlightAware UK
08:26 58.9720 -7.2460 327° Northwest 479 551 32,000  Level FlightAware
08:26 58.9823 -7.2593 327° Northwest 486 559 32,000  Level FlightAware UK
08:27 59.0382 -7.3290 327° Northwest 486 559 32,000  Level FlightAware UK
08:27 59.0480 -7.3410 327° Northwest 480 552 32,000  Level FlightAware
08:27 59.0939 -7.3992 327° Northwest 486 559 32,000  Level FlightAware UK
08:27 59.1220 -7.4330 327° Northwest 480 552 32,000  Level FlightAware
08:28 59.1497 -7.4698 327° Northwest 490 564 32,000  Level FlightAware UK
08:28 59.2057 -7.5402 327° Northwest 486 559 32,000  Level FlightAware UK
08:28 59.2070 -7.5410 327° Northwest 480 552 32,000  Level FlightAware
08:29 59.2614 -7.6110 327° Northwest 490 564 32,000  Level FlightAware UK
08:29 59.3168 -7.6819 327° Northwest 490 564 32,000  Level FlightAware UK
08:29 59.3270 -7.6940 327° Northwest 477 549 32,000  Level FlightAware
08:30 59.3721 -7.7524 327° Northwest 492 566 32,000  Level FlightAware UK
08:30 59.4010 -7.7900 327° Northwest 466 536 32,000  Level FlightAware
08:30 59.4270 -7.8230 327° Northwest 486 559 32,000  Level FlightAware UK
08:31 59.4740 -7.8820 327° Northwest 465 535 32,000  Level FlightAware
08:31 59.4921 -7.9070 327° Northwest 486 559 32,000  Level FlightAware UK
08:31 59.5465 -7.9779 327° Northwest 484 557 32,000  Level FlightAware UK
08:31 59.5620 -7.9980 327° Northwest 464 534 32,000  Level FlightAware
08:32 59.6008 -8.0490 327° Northwest 482 555 32,000  Level FlightAware UK
08:32 59.6360 -8.0950 327° Northwest 466 536 32,000  Level FlightAware
08:32 59.6554 -8.1203 327° Northwest 482 555 32,000  Level FlightAware UK
08:33 59.6980 -8.1740 327° Northwest 467 537 32,000  Level FlightAware
08:33 59.7100 -8.1920 327° Northwest 482 555 32,000  Level FlightAware UK
08:33 59.7649 -8.2642 327° Northwest 482 555 32,000  Level FlightAware UK
08:33 59.7880 -8.2940 326° Northwest 469 540 32,000  Level FlightAware
08:34 59.8198 -8.3369 326° Northwest 482 555 32,000  Level FlightAware UK
08:34 59.8747 -8.4099 326° Northwest 482 555 32,000  Level FlightAware UK
08:34 59.8880 -8.4260 326° Northwest 471 542 32,000  Level FlightAware
08:35 59.9297 -8.4833 326° Northwest 484 557 32,000  Level FlightAware UK
08:35 59.9540 -8.5160 326° Northwest 478 550 32,000  Level FlightAware
08:35 59.9848 -8.5570 326° Northwest 484 557 32,000  Level FlightAware UK
08:36 60.0490 -8.6420 327° Northwest 480 552 32,000  Level FlightAware
08:37 60.1820 -8.8220 326° Northwest 482 555 32,000  Level FlightAware
08:38 60.2370 -8.8970 326° Northwest 481 554 32,000  Level FlightAware
08:38 60.3170 -9.0080 326° Northwest 479 551 32,000  Level FlightAware
08:39 60.3810 -9.0960 326° Northwest 478 550 32,000  Level FlightAware
08:39 60.4410 -9.1790 326° Northwest 476 548 32,000  Level FlightAware
08:40 60.5140 -9.2840 325° Northwest 476 548 32,000  Level FlightAware
08:41 60.5690 -9.3620 325° Northwest 476 548 32,000  Level FlightAware
08:41 60.6250 -9.4410 325° Northwest 476 548 32,000  Level FlightAware
08:42 60.6980 -9.5460 325° Northwest 476 548 32,000  Level FlightAware
08:43 60.7530 -9.6250 325° Northwest 476 548 32,000  Level FlightAware
08:43 60.8090 -9.7050 325° Northwest 476 548 32,000  Level FlightAware
08:44 60.8840 -9.8130 325° Northwest 476 548 32,000  Level FlightAware
08:45 60.9400 -9.8940 325° Northwest 476 548 32,000  Level FlightAware
08:46 61.0140 -10.0010 325° Northwest 476 548 32,000  Level FlightAware
08:46 61.0510 -10.0540 325° Northwest 476 548 32,000  Level FlightAware
08:47 61.1430 -10.1870 325° Northwest 476 548 32,000  Level FlightAware
08:48 61.2000 -10.2700 325° Northwest 476 548 32,000  Level FlightAware
08:48 61.2360 -10.3230 325° Northwest 476 548 32,000  Level FlightAware
08:49 61.3100 -10.4300 325° Northwest 476 548 32,000  Level FlightAware
08:49 61.3650 -10.5110 325° Northwest 476 548 32,000  Level FlightAware
08:50 61.3840 -10.5380 326° Northwest 476 548 32,000 1,020 Level FlightAware
08:51 61.6340 -11.3120 304° West 475 547 34,000 840 Climbing FlightAware
08:52 61.6870 -11.4240 315° West 476 548 34,000  Level FlightAware
08:53 61.7520 -11.5630 315° West 476 548 34,000  Level FlightAware
08:53 61.7990 -11.6670 314° West 476 548 34,000  Level FlightAware
08:54 61.8790 -11.8390 315° West 475 547 34,000  Level FlightAware
08:55 61.9410 -11.9760 314° West 474 545 34,000  Level FlightAware
08:55 61.9940 -12.0930 314° West 473 544 34,000  Level FlightAware
08:56 62.0520 -12.2210 314° West 473 544 34,000  Level FlightAware
08:57 62.1480 -12.4370 314° West 473 544 34,000  Level FlightAware
08:58 62.2000 -12.5520 314° West 473 544 34,000  Level FlightAware
08:58 62.2560 -12.6780 314° West 473 544 34,000  Level FlightAware
08:59 62.3090 -12.8000 313° West 472 543 34,000  Level FlightAware
09:00 62.3760 -12.9550 313° West 472 543 34,000  Level FlightAware
09:00 62.4420 -13.1060 313° West 473 544 34,000  Level FlightAware
09:01 62.4950 -13.2300 313° West 473 544 34,000  Level FlightAware
09:02 62.5630 -13.3860 313° West 473 544 34,000  Level FlightAware
09:02 62.6160 -13.5110 313° West 473 544 34,000  Level FlightAware
09:03 62.6880 -13.6830 312° West 472 543 34,000  Level FlightAware
09:04 62.7590 -13.8510 313° West 472 543 34,000  Level FlightAware
09:04 62.8010 -13.9530 312° West 470 541 34,000  Level FlightAware
09:05 62.8630 -14.1010 313° West 468 539 34,000  Level FlightAware
09:06 62.9240 -14.2520 312° West 468 539 34,000  Level FlightAware
09:06 62.9760 -14.3760 313° West 468 539 34,000  Level FlightAware
09:07 63.0370 -14.5280 312° West 468 539 34,000  Level FlightAware
09:08 63.0990 -14.6810 312° West 467 537 34,000  Level FlightAware
09:08 63.1440 -14.7950 311° West 466 536 34,000  Level FlightAware
09:09 63.1880 -14.9060 311° West 465 535 34,000  Level FlightAware
09:10 63.2520 -15.0660 312° West 464 534 34,000  Level FlightAware
09:10 63.2900 -15.1630 311° West 464 534 34,000  Level FlightAware
09:11 63.3980 -15.4390 311° West 464 534 34,000  Level FlightAware
09:12 63.4370 -15.5370 312° West 463 533 34,000  Level FlightAware
09:12 63.4800 -15.6490 311° West 463 533 34,000  Level FlightAware
09:13 63.5320 -15.7840 311° West 464 534 34,000  Level FlightAware
09:14 63.6030 -15.9700 311° West 464 534 34,000  Level FlightAware
09:14 63.6580 -16.1170 310° West 464 534 34,000  Level FlightAware
09:15 63.7140 -16.2650 311° West 465 535 34,000  Level FlightAware
09:16 63.7810 -16.4470 310° West 467 537 34,000  Level FlightAware
09:16 63.8310 -16.5780 311° West 467 537 34,000  Level FlightAware
09:17 63.8940 -16.7510 310° West 467 537 34,000  Level FlightAware
09:18 63.9680 -16.9550 310° West 465 535 34,000  Level FlightAware
09:19 64.0310 -17.1280 310° West 463 533 34,000  Level FlightAware
09:20 64.0850 -17.2790 309° West 462 532 34,000  Level FlightAware
09:20 64.1470 -17.4530 309° West 462 532 34,000  Level FlightAware
09:21 64.2030 -17.6120 309° West 462 532 34,000  Level FlightAware
09:22 64.2510 -17.7490 309° West 461 531 34,000  Level FlightAware
09:22 64.2990 -17.8870 309° West 461 531 34,000  Level FlightAware
09:23 64.3530 -18.0400 309° West 461 531 34,000  Level FlightAware
09:23 64.4020 -18.1860 308° West 460 529 34,000  Level FlightAware
09:24 64.4660 -18.3710 309° West 461 531 34,000  Level FlightAware
09:25 64.5190 -18.5270 308° West 462 532 34,000  Level FlightAware
09:26 64.5710 -18.6830 308° West 464 534 34,000  Level FlightAware
09:26 64.6090 -18.7940 309° West 468 539 34,000  Level FlightAware
09:27 64.6520 -18.9250 308° West 470 541 34,000  Level FlightAware
09:27 64.7080 -19.0950 308° West 474 545 34,000  Level FlightAware
09:28 64.7510 -19.2240 308° West 475 547 34,000  Level FlightAware
09:28 64.8000 -19.3760 307° West 476 548 34,000  Level FlightAware
09:29 64.8430 -19.5070 308° West 477 549 34,000  Level FlightAware
09:30 64.8880 -19.6470 307° West 476 548 34,000  Level FlightAware
09:30 64.9460 -19.8290 307° West 474 545 34,000  Level FlightAware
09:31 64.9920 -19.9720 307° West 473 544 34,000  Level FlightAware
09:32 65.0640 -20.1730 310° West 471 542 34,000  Level FlightAware
09:33 65.1300 -20.3510 311° West 472 543 34,000  Level FlightAware
09:33 65.1970 -20.5310 312° West 472 543 34,000  Level FlightAware
09:34 65.2350 -20.6330 312° West 473 544 34,000  Level FlightAware
09:34 65.2910 -20.7910 310° West 473 544 34,000  Level FlightAware
09:35 65.3360 -20.9170 311° West 473 544 34,000  Level FlightAware
09:36 65.4000 -21.0930 311° West 472 543 34,000  Level FlightAware
09:36 65.4450 -21.2240 310° West 472 543 34,000  Level FlightAware
09:37 65.5070 -21.3960 311° West 471 542 34,000  Level FlightAware
09:38 65.5620 -21.5570 310° West 472 543 34,000  Level FlightAware
09:38 65.6070 -21.6860 310° West 470 541 34,000  Level FlightAware
09:39 65.6570 -21.8310 310° West 469 540 34,000  Level FlightAware
09:39 65.7180 -22.0090 310° West 470 541 34,000  Level FlightAware
09:40 65.7730 -22.1710 310° West 469 540 34,000  Level FlightAware
09:41 65.8230 -22.3180 310° West 469 540 34,000  Level FlightAware
09:41 65.8750 -22.4730 309° West 466 536 34,000  Level FlightAware
09:42 65.9320 -22.6490 309° West 465 535 34,000  Level FlightAware
09:43 65.9740 -22.7750 309° West 465 535 34,000  Level FlightAware
09:43 66.0200 -22.9150 309° West 465 535 34,000  Level FlightAware
09:44 66.0720 -23.0720 309° West 466 536 34,000  Level FlightAware
09:44 66.1230 -23.2300 309° West 467 537 34,000  Level FlightAware
09:45 66.1730 -23.3890 308° West 469 540 34,000  Level FlightAware
09:46 66.2290 -23.5610 309° West 470 541 34,000  Level FlightAware
09:47 66.3080 -23.8120 308° West 473 544 34,000  Level FlightAware
09:47 66.3660 -24.0000 308° West 474 545 34,000  Level FlightAware
09:49 66.4560 -24.2900 308° West 473 544 34,000  Level FlightAware
09:49 66.5030 -24.4420 308° West 473 544 34,000  Level FlightAware
09:50 66.5400 -24.5630 308° West 471 542 34,000  Level FlightAware
09:50 66.5900 -24.7280 307° West 470 541 34,000  Level FlightAware
09:51 66.6390 -24.8940 307° West 470 541 34,000  Level FlightAware
09:52 66.7150 -25.1470 307° West 470 541 34,000  Level FlightAware
09:52 66.7510 -25.2710 306° West 470 541 34,000  Level FlightAware
09:53 66.8240 -25.5230 306° West 470 541 34,000  Level FlightAware
09:54 66.8710 -25.6830 307° West 471 542 34,000  Level FlightAware
09:54 66.9050 -25.7990 307° West 471 542 34,000  Level FlightAware
09:55 66.9630 -26.0050 306° West 470 541 34,000  Level FlightAware
09:56 67.0120 -26.1800 306° West 471 542 34,000  Level FlightAware
09:56 67.0630 -26.3570 307° West 471 542 34,000  Level FlightAware
09:57 67.1180 -26.5620 305° West 471 542 34,000  Level FlightAware
09:58 67.1560 -26.7020 305° West 471 542 34,000  Level FlightAware
09:58 67.1940 -26.8430 305° West 471 542 34,000  Level FlightAware
09:59 67.2330 -26.9840 306° West 471 542 34,000  Level FlightAware
10:00 67.2720 -27.1290 305° West 471 542 34,000  Level FlightAware
10:00 67.3100 -27.2710 305° West 471 542 34,000  Level FlightAware
10:01 67.3490 -27.4170 305° West 471 542 34,000  Level FlightAware
10:02 67.3880 -27.5590 306° West 471 542 34,000  Level FlightAware
10:02 67.4390 -27.7480 305° West 471 542 34,000  Level FlightAware
10:03 67.4910 -27.9420 305° West 471 542 34,000  Level FlightAware
10:04 67.5290 -28.0850 305° West 471 542 34,000  Level FlightAware
10:04 67.5650 -28.2200 305° West 471 542 34,000  Level FlightAware
10:05 67.6300 -28.4630 305° West 471 542 34,000  Level FlightAware
10:06 67.6690 -28.6110 305° West 471 542 34,000  Level FlightAware
10:06 67.6950 -28.7070 306° West 471 542 34,000  Level FlightAware
10:10 67.8257 -29.7128 289° West  Level Estimated
10:11 67.8655 -30.0311 288° West  Level Estimated
10:12 67.9046 -30.3504 288° West  Level Estimated
10:13 67.9431 -30.6708 288° West  Level Estimated
10:14 67.9810 -30.9923 288° West  Level Estimated
10:15 68.0183 -31.3148 287° West  Level Estimated
10:16 68.0549 -31.6383 287° West  Level Estimated
10:17 68.0910 -31.9629 287° West  Level Estimated
10:18 68.1263 -32.2885 286° West  Level Estimated
10:19 68.1611 -32.6150 286° West  Level Estimated
10:20 68.1951 -32.9426 286° West  Level Estimated
10:21 68.2286 -33.2711 285° West  Level Estimated
10:22 68.2614 -33.6005 285° West  Level Estimated
10:23 68.2935 -33.9309 285° West  Level Estimated
10:24 68.3250 -34.2623 285° West  Level Estimated
10:25 68.3558 -34.5945 284° West  Level Estimated
10:26 68.3859 -34.9276 284° West  Level Estimated
10:27 68.4154 -35.2616 284° West  Level Estimated
10:28 68.4442 -35.5965 283° West  Level Estimated
10:29 68.4724 -35.9322 283° West  Level Estimated
10:30 68.4999 -36.2687 283° West  Level Estimated
10:31 68.5267 -36.6060 282° West  Level Estimated
10:32 68.5528 -36.9442 282° West  Level Estimated
10:33 68.5782 -37.2831 282° West  Level Estimated
10:34 68.6030 -37.6227 281° West  Level Estimated
10:35 68.6271 -37.9631 281° West  Level Estimated
10:36 68.6504 -38.3043 281° West  Level Estimated
10:37 68.6731 -38.6461 280° West  Level Estimated
10:38 68.6951 -38.9886 280° West  Level Estimated
10:39 68.7165 -39.3318 280° West  Level Estimated
10:40 68.7371 -39.6756 280° West  Level Estimated
10:41 68.7570 -40.0201 279° West  Level Estimated
10:42 68.7762 -40.3651 279° West  Level Estimated
10:43 68.7947 -40.7108 279° West  Level Estimated
10:44 68.8125 -41.0569 278° West  Level Estimated
10:45 68.8296 -41.4037 278° West  Level Estimated
10:46 68.8460 -41.7510 278° West  Level Estimated
10:47 68.8617 -42.0987 277° West  Level Estimated
10:48 68.8766 -42.4470 277° West  Level Estimated
10:49 68.8909 -42.7957 277° West  Level Estimated
10:50 68.9044 -43.1449 276° West  Level Estimated
10:51 68.9173 -43.4944 276° West  Level Estimated
10:52 68.9294 -43.8444 276° West  Level Estimated
10:53 68.9408 -44.1948 275° West  Level Estimated
10:54 68.9515 -44.5454 275° West  Level Estimated
10:55 68.9614 -44.8965 275° West  Level Estimated
10:56 68.9707 -45.2478 274° West  Level Estimated
10:57 68.9792 -45.5994 274° West  Level Estimated
10:58 68.9870 -45.9513 274° West  Level Estimated
10:59 68.9940 -46.3034 273° West  Level Estimated
11:00 69.0004 -46.6557 273° West  Level Estimated
11:01 69.0060 -47.0082 273° West  Level Estimated
11:02 69.0109 -47.3609 272° West  Level Estimated
11:03 69.0151 -47.7137 272° West  Level Estimated
11:04 69.0185 -48.0667 272° West  Level Estimated
11:05 69.0212 -48.4197 271° West  Level Estimated
11:06 69.0232 -48.7728 271° West  Level Estimated
11:07 69.0244 -49.1260 271° West  Level Estimated
11:08 69.0250 -49.4792 270° West  Level Estimated
11:09 69.0248 -49.8324 270° West  Level Estimated
11:10 69.0238 -50.1856 270° West  Level Estimated
11:11 69.0222 -50.5387 269° West  Level Estimated
11:12 69.0198 -50.8918 269° West  Level Estimated
11:13 69.0167 -51.2448 269° West  Level Estimated
11:14 69.0128 -51.5977 268° West  Level Estimated
11:15 69.0083 -51.9505 268° West  Level Estimated
11:16 69.0030 -52.3030 268° West  Level Estimated
11:17 68.9970 -52.6554 267° West  Level Estimated
11:18 68.9902 -53.0076 267° West  Level Estimated
11:19 68.9828 -53.3596 267° West  Level Estimated
11:20 68.9746 -53.7114 266° West  Level Estimated
11:21 68.9657 -54.0628 266° West  Level Estimated
11:22 68.9560 -54.4140 266° West  Level Estimated
11:23 68.9457 -54.7648 265° West  Level Estimated
11:24 68.9346 -55.1153 265° West  Level Estimated
11:25 68.9228 -55.4655 265° West  Level Estimated
11:26 68.9103 -55.8152 264° West  Level Estimated
11:27 68.8971 -56.1646 264° West  Level Estimated
11:28 68.8832 -56.5135 264° West  Level Estimated
11:29 68.8685 -56.8619 264° West  Level Estimated
11:30 68.8532 -57.2099 263° West  Level Estimated
11:31 68.8371 -57.5574 263° West  Level Estimated
11:32 68.8203 -57.9044 263° West  Level Estimated
11:33 68.8028 -58.2509 262° West  Level Estimated
11:34 68.7846 -58.5968 262° West  Level Estimated
11:35 68.7657 -58.9421 262° West  Level Estimated
11:36 68.7461 -59.2868 261° West  Level Estimated
11:37 68.7258 -59.6309 261° West  Level Estimated
11:38 68.7048 -59.9744 261° West  Level Estimated
11:39 68.6831 -60.3172 260° West  Level Estimated
11:40 68.6608 -60.6593 260° West  Level Estimated
11:41 68.6377 -61.0008 260° West  Level Estimated
11:42 68.6139 -61.3415 259° West  Level Estimated
11:43 68.5895 -61.6815 259° West  Level Estimated
11:44 68.5643 -62.0208 259° West  Level Estimated
11:45 68.5385 -62.3592 258° West  Level Estimated
11:46 68.5120 -62.6969 258° West  Level Estimated
11:47 68.4821 -63.0670 258° West  Level Estimated
11:48 68.4514 -63.4360 257° West  Level Estimated
11:49 68.4199 -63.8040 257° West  Level Estimated
11:50 68.3876 -64.1710 257° West  Level Estimated
11:51 68.3545 -64.5369 256° West  Level Estimated
11:52 68.3206 -64.9018 256° West  Level Estimated
11:53 68.2859 -65.2656 256° West  Level Estimated
11:54 68.2504 -65.6282 255° West  Level Estimated
11:55 68.2141 -65.9897 255° West  Level Estimated
11:56 68.1770 -66.3501 255° West  Level Estimated
11:57 68.1392 -66.7092 254° West  Level Estimated
11:58 68.1005 -67.0672 254° West  Level Estimated
11:59 68.0611 -67.4240 254° West  Level Estimated
12:00 68.0210 -67.7795 253° West  Level Estimated
12:01 67.9800 -68.1338 253° West  Level Estimated
12:02 67.9383 -68.4868 253° West  Level Estimated
12:03 67.8959 -68.8386 252° West  Level Estimated
12:04 67.8527 -69.1890 252° West  Level Estimated
12:05 67.8088 -69.5382 252° West  Level Estimated
12:06 67.7641 -69.8860 251° West  Level Estimated
12:07 67.7187 -70.2326 251° West  Level Estimated
12:08 67.6725 -70.5777 251° West  Level Estimated
12:09 67.6256 -70.9215 250° West  Level Estimated
12:10 67.5780 -71.2639 250° West  Level Estimated
12:11 67.5297 -71.6049 250° West  Level Estimated
12:12 67.4807 -71.9446 249° West  Level Estimated
12:13 67.4310 -72.2828 249° West  Level Estimated
12:14 67.3805 -72.6196 249° West  Level Estimated
12:15 67.3294 -72.9550 249° West  Level Estimated
12:16 67.2775 -73.2889 248° West  Level Estimated
12:17 67.2250 -73.6214 248° West  Level Estimated
12:18 67.1718 -73.9524 248° West  Level Estimated
12:19 67.1179 -74.2820 247° West  Level Estimated
12:20 67.0633 -74.6100 247° West  Level Estimated
12:21 67.0080 -74.9366 247° West  Level Estimated
12:22 66.9521 -75.2617 246° West  Level Estimated
12:23 66.8956 -75.5854 246° West  Level Estimated
12:24 66.8383 -75.9075 246° West  Level Estimated
12:25 66.7804 -76.2281 246° West  Level Estimated
12:26 66.7219 -76.5471 245° Southwest  Level Estimated
12:27 66.6628 -76.8647 245° Southwest  Level Estimated
12:28 66.6029 -77.1808 245° Southwest  Level Estimated
12:29 66.5425 -77.4953 244° Southwest  Level Estimated
12:30 66.4814 -77.8083 244° Southwest  Level Estimated
12:31 66.4197 -78.1197 244° Southwest  Level Estimated
12:32 66.3574 -78.4296 243° Southwest  Level Estimated
12:33 66.2945 -78.7380 243° Southwest  Level Estimated
12:34 66.2310 -79.0448 243° Southwest  Level Estimated
12:35 66.1668 -79.3500 243° Southwest  Level Estimated
12:36 66.1021 -79.6537 242° Southwest  Level Estimated
12:37 66.0368 -79.9559 242° Southwest  Level Estimated
12:38 65.9709 -80.2565 242° Southwest  Level Estimated
12:39 65.9044 -80.5555 242° Southwest  Level Estimated
12:40 65.8373 -80.8531 241° Southwest  Level Estimated
12:41 65.7697 -81.1490 241° Southwest  Level Estimated
12:42 65.7014 -81.4434 241° Southwest  Level Estimated
12:43 65.6327 -81.7362 240° Southwest  Level Estimated
12:44 65.5633 -82.0275 240° Southwest  Level Estimated
12:45 65.4934 -82.3172 240° Southwest  Level Estimated
12:46 65.4230 -82.6054 240° Southwest  Level Estimated
12:47 65.3520 -82.8920 239° Southwest  Level Estimated
12:48 65.2805 -83.1771 239° Southwest  Level Estimated
12:49 65.2084 -83.4606 239° Southwest  Level Estimated
12:50 65.1358 -83.7426 239° Southwest  Level Estimated
12:51 65.0627 -84.0230 238° Southwest  Level Estimated
12:52 64.9890 -84.3019 238° Southwest  Level Estimated
12:53 64.9149 -84.5793 238° Southwest  Level Estimated
12:54 64.8402 -84.8551 238° Southwest  Level Estimated
12:55 64.7650 -85.1294 237° Southwest  Level Estimated
12:56 64.6893 -85.4021 237° Southwest  Level Estimated
12:57 64.6131 -85.6734 237° Southwest  Level Estimated
12:58 64.5364 -85.9431 237° Southwest  Level Estimated
12:59 64.4593 -86.2113 236° Southwest  Level Estimated
13:00 64.3816 -86.4780 236° Southwest  Level Estimated
13:01 64.3035 -86.7432 236° Southwest  Level Estimated
13:02 64.2249 -87.0068 236° Southwest  Level Estimated
13:03 64.1458 -87.2690 235° Southwest  Level Estimated
13:04 64.0662 -87.5297 235° Southwest  Level Estimated
13:05 63.9862 -87.7889 235° Southwest  Level Estimated
13:06 63.9057 -88.0466 235° Southwest  Level Estimated
13:07 63.8248 -88.3028 234° Southwest  Level Estimated
13:08 63.7434 -88.5576 234° Southwest  Level Estimated
13:09 63.6615 -88.8109 234° Southwest  Level Estimated
13:10 63.5793 -89.0627 234° Southwest  Level Estimated
13:11 63.4966 -89.3131 234° Southwest  Level Estimated
13:12 63.4134 -89.5620 233° Southwest  Level Estimated
13:13 63.3298 -89.8095 233° Southwest  Level Estimated
13:14 63.2458 -90.0555 233° Southwest  Level Estimated
13:15 63.1614 -90.3002 233° Southwest  Level Estimated
13:16 63.0765 -90.5434 232° Southwest  Level Estimated
13:17 62.9913 -90.7851 232° Southwest  Level Estimated
13:18 62.9056 -91.0255 232° Southwest  Level Estimated
13:19 62.8195 -91.2645 232° Southwest  Level Estimated
13:20 62.7331 -91.5020 232° Southwest  Level Estimated
13:21 62.6462 -91.7382 231° Southwest  Level Estimated
13:22 62.5589 -91.9730 231° Southwest  Level Estimated
13:23 62.4712 -92.2064 231° Southwest  Level Estimated
13:24 62.3832 -92.4384 231° Southwest  Level Estimated
13:25 62.2948 -92.6691 231° Southwest  Level Estimated
13:26 62.2059 -92.8984 230° Southwest  Level Estimated
13:27 62.1167 -93.1264 230° Southwest  Level Estimated
13:28 62.0272 -93.3531 230° Southwest  Level Estimated
13:29 61.9373 -93.5784 230° Southwest  Level Estimated
13:30 61.8470 -93.8023 230° Southwest  Level Estimated
13:31 61.7563 -94.0250 229° Southwest  Level Estimated
13:32 61.6653 -94.2464 229° Southwest  Level Estimated
13:33 61.5739 -94.4664 229° Southwest  Level Estimated
13:34 61.4822 -94.6852 229° Southwest  Level Estimated
13:35 61.3901 -94.9026 229° Southwest  Level Estimated
13:36 61.2977 -95.1188 228° Southwest  Level Estimated
13:37 61.2049 -95.3337 228° Southwest  Level Estimated
13:38 61.1118 -95.5473 228° Southwest  Level Estimated
13:39 61.0184 -95.7597 228° Southwest  Level Estimated
13:40 60.9246 -95.9709 228° Southwest  Level Estimated
13:41 60.8305 -96.1808 227° Southwest  Level Estimated
13:42 60.7361 -96.3895 227° Southwest  Level Estimated
13:43 60.6413 -96.5969 227° Southwest  Level Estimated
13:44 60.5463 -96.8031 227° Southwest  Level Estimated
13:45 60.4509 -97.0081 227° Southwest  Level Estimated
13:46 60.3552 -97.2119 227° Southwest  Level Estimated
13:47 60.2592 -97.4146 226° Southwest  Level Estimated
13:48 60.1629 -97.6160 226° Southwest  Level Estimated
13:48 62.3167 -104.2333 225° Southwest 510 587 36,000  Level Edmonton Center
13:49 60.0663 -97.8162 226° Southwest  Level Estimated
13:49 62.2167 -104.4167 221° Southwest 520 598 36,000  Level Edmonton Center
13:50 59.9694 -98.0153 226° Southwest  Level Estimated
13:50 62.1000 -104.6000 216° Southwest 520 598 36,000  Level Edmonton Center
13:51 59.8722 -98.2132 226° Southwest  Level Estimated
13:51 61.9833 -104.8167 221° Southwest 520 598 36,000  Level Edmonton Center
13:52 59.7747 -98.4100 225° Southwest  Level Estimated
13:52 61.8500 -105.0000 213° Southwest 520 598 36,000  Level Edmonton Center
13:53 59.6769 -98.6056 225° Southwest  Level Estimated
13:53 61.7500 -105.1667 218° Southwest 520 598 36,000  Level Edmonton Center
13:54 59.5788 -98.8001 225° Southwest  Level Estimated
13:54 61.6333 -105.3833 221° Southwest 530 610 36,000  Level Edmonton Center
13:55 61.5167 -105.5667 217° Southwest 530 610 36,000  Level Edmonton Center
13:56 61.4000 -105.7667 219° Southwest 530 610 36,000  Level Edmonton Center
13:57 61.2833 -105.9500 217° Southwest 530 610 36,000  Level Edmonton Center
13:58 61.1500 -106.1500 216° Southwest 530 610 36,000  Level Edmonton Center
13:59 61.0333 -106.3167 215° Southwest 540 621 36,000  Level Edmonton Center
14:00 60.9167 -106.5333 222° Southwest 540 621 36,000  Level Edmonton Center
14:01 60.8000 -106.7333 220° Southwest 540 621 36,000  Level Edmonton Center
14:02 60.6500 -106.9000 209° Southwest 540 621 36,000  Level Edmonton Center
14:03 60.5333 -107.1000 220° Southwest 540 621 36,000  Level Edmonton Center
14:04 60.4167 -107.2667 215° Southwest 550 633 36,000  Level Edmonton Center
14:05 60.2833 -107.4500 214° Southwest 550 633 36,000  Level Edmonton Center
14:06 60.1667 -107.6500 220° Southwest 550 633 36,000  Level Edmonton Center
14:07 60.0500 -107.8167 216° Southwest 550 633 36,000  Level Edmonton Center
14:08 59.9167 -108.0000 215° Southwest 550 633 36,000 60 Level Edmonton Center
14:09 59.7833 -108.1667 212° Southwest 550 633 36,200 780 Climbing Edmonton Center
14:10 59.6667 -108.3833 223° Southwest 550 633 37,600 900 Climbing Edmonton Center
14:11 59.5333 -108.5333 210° Southwest 560 644 38,000 180 Climbing Edmonton Center
14:12 59.4167 -108.7333 221° Southwest 550 633 38,000  Level Edmonton Center
14:13 59.2833 -108.9500 220° Southwest 550 633 38,000  Level Edmonton Center
14:14 59.1667 -109.1333 219° Southwest 550 633 38,000  Level Edmonton Center
14:15 59.0500 -109.3167 219° Southwest 550 633 38,000  Level Edmonton Center
14:16 58.9333 -109.5000 219° Southwest 550 633 38,000  Level Edmonton Center
14:17 58.8000 -109.6833 215° Southwest 550 633 38,000  Level Edmonton Center
14:18 58.6833 -109.8667 219° Southwest 550 633 38,000  Level Edmonton Center
14:19 58.5667 -110.0667 222° Southwest 550 633 38,000  Level Edmonton Center
14:20 58.4333 -110.2500 216° Southwest 550 633 38,000  Level Edmonton Center
14:21 58.3167 -110.4167 217° Southwest 550 633 38,000  Level Edmonton Center
14:22 58.1833 -110.6333 221° Southwest 560 644 38,000  Level Edmonton Center
14:23 58.0667 -110.8000 217° Southwest 560 644 38,000  Level Edmonton Center
14:24 57.9333 -110.9667 214° Southwest 560 644 38,000  Level Edmonton Center
14:25 57.8167 -111.1500 220° Southwest 560 644 38,000  Level Edmonton Center
14:26 57.6833 -111.3500 219° Southwest 560 644 38,000  Level Edmonton Center
14:27 57.5667 -111.5167 217° Southwest 560 644 38,000  Level Edmonton Center
14:28 57.4333 -111.7167 219° Southwest 560 644 38,000  Level Edmonton Center
14:29 57.3000 -111.8833 214° Southwest 560 644 38,000  Level Edmonton Center
14:30 57.1833 -112.0500 218° Southwest 560 644 38,000  Level Edmonton Center
14:31 57.0500 -112.2333 217° Southwest 570 656 38,000  Level Edmonton Center
14:36 56.4160 -113.0600 217° Southwest 38,000  Level FlightAware
14:38 56.1900 -113.3510 216° Southwest 38,000  Level FlightAware
14:38 56.1410 -113.4120 215° Southwest 573 659 38,000  Level FlightAware
14:40 55.9760 -113.6210 215° Southwest 572 658 38,000  Level FlightAware
14:40 55.8970 -113.7220 216° Southwest 572 658 38,000  Level FlightAware
14:41 55.7460 -113.9080 215° Southwest 573 659 38,000  Level FlightAware
14:42 55.6580 -114.0180 215° Southwest 574 661 38,000  Level FlightAware
14:43 55.5830 -114.1090 214° Southwest 574 661 38,000  Level FlightAware
14:43 55.5410 -114.1630 216° Southwest 575 662 38,000  Level FlightAware
14:43 55.4730 -114.2450 214° Southwest 575 662 38,000  Level FlightAware
14:45 55.3180 -114.4310 214° Southwest 568 654 38,000  Level FlightAware
14:45 55.2200 -114.5490 214° Southwest 569 655 38,000  Level FlightAware
14:46 55.1510 -114.6280 213° Southwest 569 655 38,000  Level FlightAware
14:46 55.0650 -114.7350 215° Southwest 569 655 38,000  Level FlightAware
14:47 54.9780 -114.8370 214° Southwest 570 656 38,000  Level FlightAware
14:48 54.9120 -114.9150 214° Southwest 570 656 38,000  Level FlightAware
14:48 54.8340 -115.0080 214° Southwest 570 656 38,000  Level FlightAware
14:49 54.7460 -115.1080 213° Southwest 569 655 38,000  Level FlightAware
14:49 54.6680 -115.2010 215° Southwest 569 655 38,000  Level FlightAware
14:50 54.5850 -115.2750 207° Southwest 574 661 38,000  Level FlightAware
14:51 54.4470 -115.3650 201° Southwest 583 671 38,000  Level FlightAware
14:51 54.3720 -115.4160 202° Southwest 576 663 38,000  Level FlightAware
14:52 54.2730 -115.4840 202° Southwest 576 663 38,000  Level FlightAware
14:53 54.1730 -115.5540 202° Southwest 575 662 38,000  Level FlightAware
14:53 54.0850 -115.6180 203° Southwest 575 662 38,000  Level FlightAware
14:54 53.9860 -115.6850 202° Southwest 582 670 38,000  Level FlightAware
14:55 53.8860 -115.7490 201° Southwest 581 669 38,000  Level FlightAware
14:55 53.7980 -115.8080 202° Southwest 581 669 38,000  Level FlightAware
14:56 53.6340 -115.9130 201° Southwest 581 669 38,000  Level FlightAware
14:57 53.5600 -115.9610 201° Southwest 581 669 38,000  Level FlightAware
14:58 53.3840 -116.0750 201° Southwest 573 659 38,000  Level FlightAware
14:59 53.2840 -116.1390 201° Southwest 572 658 38,000  Level FlightAware
14:59 53.1960 -116.1940 201° Southwest 580 667 38,000  Level FlightAware
15:00 53.1100 -116.2480 201° Southwest 580 667 38,000  Level FlightAware
15:01 52.9840 -116.3270 201° Southwest 580 667 38,000  Level FlightAware
15:01 52.9010 -116.3800 201° Southwest 580 667 38,000  Level FlightAware
15:02 52.8080 -116.4360 200° South 581 669 38,000  Level FlightAware
15:03 52.7080 -116.4980 201° Southwest 580 667 38,000  Level FlightAware
15:03 52.6230 -116.5510 201° Southwest 580 667 38,000  Level FlightAware
15:04 52.4930 -116.6310 201° Southwest 580 667 38,000  Level FlightAware
15:05 52.4030 -116.6860 200° South 581 669 38,000  Level FlightAware
15:05 52.3140 -116.7400 200° South 581 669 38,000  Level FlightAware
15:06 52.1860 -116.8170 200° South 582 670 38,000  Level FlightAware
15:07 52.1090 -116.8630 200° South 582 670 38,000  Level FlightAware
15:07 52.0100 -116.9220 200° South 581 669 38,000  Level FlightAware
15:08 51.9190 -116.9760 200° South 582 670 38,000  Level FlightAware
15:09 51.8070 -117.0430 200° South 583 671 38,000  Level FlightAware
15:09 51.7320 -117.0860 200° South 583 671 38,000  Level FlightAware
15:10 51.5650 -117.1840 200° South 585 673 38,000  Level FlightAware
15:11 51.4920 -117.2270 200° South 578 665 38,000  Level FlightAware
15:12 51.2920 -117.3440 200° South 584 672 38,000  Level FlightAware
15:13 51.1260 -117.4390 200° South 579 666 38,000  Level FlightAware
15:14 51.0240 -117.4970 200° South 579 666 38,000  Level FlightAware
15:14 50.9350 -117.5480 200° South 579 666 38,000  Level FlightAware
15:15 50.8580 -117.5920 200° South 579 666 38,000  Level FlightAware
15:15 50.7820 -117.6330 199° South 577 664 38,000  Level FlightAware
15:16 50.6810 -117.6910 200° South 582 670 38,000  Level FlightAware
15:16 50.6080 -117.7320 200° South 580 667 38,000  Level FlightAware
15:17 50.5160 -117.7840 200° South 575 662 38,000  Level FlightAware
15:18 50.4280 -117.8320 199° South 564 649 38,000  Level FlightAware
15:18 50.3300 -117.8860 199° South 566 651 38,000  Level FlightAware
15:19 50.2440 -117.9330 199° South 563 648 38,000  Level FlightAware
15:19 50.1470 -117.9870 200° South 559 643 38,000  Level FlightAware
15:20 50.0370 -118.0470 199° South 557 641 38,000  Level FlightAware
15:21 49.9750 -118.0810 199° South 557 641 38,000  Level FlightAware
15:22 49.8480 -118.1480 199° South 557 641 38,000  Level FlightAware
15:22 49.7740 -118.1880 199° South 557 641 38,000  Level FlightAware
15:23 49.6380 -118.2630 200° South 552 635 38,000  Level FlightAware
15:23 49.5790 -118.2940 199° South 549 632 38,000  Level FlightAware
15:24 49.4900 -118.3420 199° South 545 627 38,000  Level FlightAware
15:25 49.4160 -118.3810 199° South 544 626 38,000  Level FlightAware
15:25 49.3880 -118.3950 198° South 543 625 38,000  Level FlightAware
15:26 49.2710 -118.4580 199° South 545 627 38,000  Level FlightAware
15:26 49.1590 -118.5160 199° South 546 628 38,000  Level FlightAware
15:27 49.1370 -118.5280 200° South 546 628 38,000  Level FlightAware
15:27 49.0020 -118.5990 199° South 544 626 38,000  Level FlightAware
15:28 48.9450 -118.6280 198° South 543 625 38,000  Level FlightAware
15:29 48.8150 -118.6940 198° South 541 623 38,000  Level FlightAware
15:30 48.6950 -118.7570 199° South 541 623 38,000  Level FlightAware
15:30 48.6230 -118.7950 199° South 540 621 38,000  Level FlightAware
15:31 48.5400 -118.8360 198° South 539 620 38,000  Level FlightAware
15:31 48.4324 -118.8910 199° South 539 620 38,000  Level FlightAware ADS-B
15:32 48.3596 -118.9280 199° South 538 619 38,000  Level FlightAware ADS-B
15:32 48.2874 -118.9650 199° South 537 618 38,000  Level FlightAware ADS-B
15:33 48.1942 -119.0130 199° South 535 616 38,000  Level FlightAware ADS-B
15:34 48.1003 -119.0600 198° South 533 613 38,000  Level FlightAware ADS-B
15:34 47.9949 -119.1130 199° South 534 615 38,000  Level FlightAware ADS-B
15:35 47.8774 -119.1700 198° South 531 611 38,000  Level FlightAware ADS-B
15:36 47.7995 -119.2100 199° South 530 610 38,000  Level FlightAware ADS-B
15:37 47.6833 -119.2670 198° South 529 609 38,000  Level FlightAware ADS-B
15:37 47.5812 -119.3170 198° South 528 608 38,000  Level FlightAware ADS-B
15:38 47.5112 -119.3520 199° South 528 608 38,000  Level FlightAware ADS-B
15:38 47.4411 -119.3860 198° South 528 608 38,000  Level FlightAware ADS-B
15:39 47.3691 -119.4210 198° South 527 606 38,000  Level FlightAware ADS-B
15:39 47.2998 -119.4540 198° South 527 606 38,000  Level FlightAware ADS-B
15:40 47.2299 -119.4880 198° South 526 605 38,000  Level FlightAware ADS-B
15:41 47.1574 -119.5240 199° South 527 606 38,000  Level FlightAware ADS-B
15:41 47.0874 -119.5570 198° South 527 606 38,000  Level FlightAware ADS-B
15:42 47.0159 -119.5920 198° South 527 606 38,000  Level FlightAware ADS-B
15:42 46.9462 -119.6250 198° South 528 608 38,000  Level FlightAware ADS-B
15:43 46.8764 -119.6580 198° South 527 606 38,000  Level FlightAware ADS-B
15:43 46.7556 -119.7160 198° South 527 606 38,000  Level FlightAware ADS-B
15:44 46.6753 -119.7540 198° South 527 606 38,000  Level FlightAware ADS-B
15:44 46.6054 -119.7870 198° South 527 606 38,000  Level FlightAware ADS-B
15:45 46.5233 -119.8260 198° South 527 606 38,000 -540 Level FlightAware ADS-B
15:46 46.4468 -119.8610 197° South 524 603 37,400 -720 Descending FlightAware ADS-B
15:46 46.3307 -119.9160 198° South 530 610 37,000 -240 Descending FlightAware ADS-B
15:47 46.2064 -119.9740 198° South 530 610 37,000  Level FlightAware ADS-B
15:48 46.0563 -120.0440 198° South 532 612 37,000 480 Level FlightAware ADS-B
15:49 46.0300 -120.0570 199° South 526 605 38,000 720 Climbing FlightAware
15:50 45.9810 -120.0800 198° South 526 605 38,000  Level FlightAware
15:50 45.9080 -120.1140 198° South 526 605 38,000  Level FlightAware
15:51 45.8140 -120.1580 198° South 526 605 38,000 -540 Level FlightAware
15:52 45.5100 -120.2930 197° South 522 601 37,000 -600 Descending FlightAware
15:53 45.4220 -120.3330 198° South 521 600 37,000  Level FlightAware
15:54 45.3040 -120.3870 198° South 521 600 37,000  Level FlightAware
15:54 45.2150 -120.4270 198° South 520 598 37,000  Level FlightAware
15:55 45.1390 -120.4610 198° South 519 597 37,000  Level FlightAware
15:56 45.0750 -120.4890 197° South 520 598 37,000  Level FlightAware
15:56 44.9840 -120.5300 198° South 520 598 37,000  Level FlightAware
15:57 44.9110 -120.5620 197° South 519 597 37,000  Level FlightAware
15:57 44.8040 -120.6100 198° South 520 598 37,000  Level FlightAware
15:58 44.7120 -120.6510 198° South 521 600 37,000  Level FlightAware
15:59 44.6490 -120.6780 197° South 521 600 37,000  Level FlightAware
15:59 44.6250 -120.6880 197° South 521 600 37,000  Level FlightAware
16:00 44.4800 -120.7520 197° South 523 602 37,000  Level FlightAware
16:00 44.4060 -120.7840 197° South 524 603 37,000  Level FlightAware
16:01 44.3440 -120.8110 197° South 523 602 37,000  Level FlightAware
16:02 44.1940 -120.8760 197° South 522 601 37,000  Level FlightAware
16:03 44.1230 -120.9060 197° South 522 601 37,000  Level FlightAware
16:04 43.9490 -120.9810 197° South 521 600 37,000  Level FlightAware
16:05 43.8280 -121.0330 197° South 522 601 37,000  Level FlightAware
16:05 43.7330 -121.0740 197° South 523 602 37,000  Level FlightAware
16:06 43.6640 -121.1030 197° South 524 603 37,000  Level FlightAware
16:07 43.5610 -121.1460 197° South 524 603 37,000  Level FlightAware
16:07 43.4880 -121.1770 197° South 524 603 37,000  Level FlightAware
16:08 43.3470 -121.2370 197° South 524 603 37,000  Level FlightAware
16:09 43.2260 -121.2880 197° South 520 598 37,000  Level FlightAware
16:10 43.0900 -121.3430 196° South 524 603 37,000  Level FlightAware
16:10 43.0070 -121.3780 197° South 525 604 37,000  Level FlightAware
16:11 42.8700 -121.4350 197° South 525 604 37,000  Level FlightAware
16:12 42.7940 -121.4670 197° South 525 604 37,000  Level FlightAware
16:13 42.7090 -121.5010 196° South 525 604 37,000  Level FlightAware
16:13 42.6390 -121.5300 197° South 525 604 37,000  Level FlightAware
16:14 42.4970 -121.5880 197° South 526 605 37,000  Level FlightAware
16:15 42.4330 -121.6140 197° South 527 606 37,000  Level FlightAware
16:16 42.2430 -121.6910 197° South 525 604 37,000  Level FlightAware
16:16 42.1770 -121.7170 196° South 525 604 37,000  Level FlightAware
16:17 42.1060 -121.7390 193° South 525 604 37,000  Level FlightAware
16:18 42.0060 -121.7650 191° South 526 605 37,000  Level FlightAware
16:18 41.9060 -121.7900 191° South 526 605 37,000  Level FlightAware
16:19 41.8360 -121.8070 190° South 527 606 37,000  Level FlightAware
16:20 41.6560 -121.8530 191° South 527 606 37,000  Level FlightAware
16:21 41.5840 -121.8710 191° South 528 608 37,000  Level FlightAware
16:22 41.4360 -121.9080 191° South 528 608 37,000  Level FlightAware
16:22 41.3410 -121.9340 192° South 528 608 37,000  Level FlightAware
16:23 41.2210 -121.9700 193° South 530 610 37,000  Level FlightAware
16:24 41.1450 -121.9940 193° South 529 609 37,000  Level FlightAware
16:24 41.0450 -122.0240 193° South 529 609 37,000  Level FlightAware
16:25 40.9205 -122.0610 193° South 530 610 37,000  Level FlightAware ADS-B (KAHC)
16:26 40.8490 -122.0821 193° South 528 608 37,000  Level FlightAware ADS-B (KAHC)
16:26 40.7459 -122.1121 192° South 529 609 37,000  Level FlightAware ADS-B (KAHC)
16:27 40.6725 -122.1339 193° South 531 611 37,000  Level FlightAware ADS-B (KAHC)
16:28 40.5742 -122.1628 193° South 531 611 37,000  Level FlightAware ADS-B (KAHC)
16:28 40.5019 -122.1838 192° South 530 610 37,000  Level FlightAware ADS-B (KAHC)
16:29 40.4297 -122.2047 192° South 529 609 37,000  Level FlightAware ADS-B (KAHC)
16:29 40.3397 -122.2312 193° South 531 611 37,000  Level FlightAware ADS-B (KAHC)
16:30 40.2457 -122.2584 192° South 530 610 37,000  Level FlightAware ADS-B (KAHC)
16:30 40.1740 -122.2790 192° South 529 609 37,000  Level FlightAware
16:31 40.0930 -122.3020 192° South 523 602 37,000  Level FlightAware
16:31 40.1543 -122.2849 12° North 529 609 37,000  Level FlightAware ADS-B (KAHC)
16:32 39.9120 -122.3550 193° South 528 608 37,000  Level FlightAware
16:33 39.8020 -122.3860 192° South 528 608 37,000  Level FlightAware
16:34 39.7150 -122.4110 192° South 529 609 37,000 -660 Level FlightAware
16:35 39.5620 -122.4550 193° South 527 606 35,900 -900 Descending FlightAware
16:35 39.4900 -122.4760 193° South 523 602 35,600 -1,080 Descending FlightAware
16:36 39.3970 -122.5010 192° South 513 590 34,700 -1,860 Descending FlightAware
16:37 39.2460 -122.5440 192° South 494 568 32,400 -2,100 Descending FlightAware
16:38 39.1570 -122.5700 193° South 492 566 31,100 -1,920 Descending FlightAware
16:38 39.0920 -122.5880 192° South 475 547 30,200 -1,860 Descending FlightAware
16:39 39.0160 -122.6090 192° South 464 534 29,100 -1,740 Descending FlightAware
16:39 38.9320 -122.6320 192° South 458 527 28,000 -1,740 Descending FlightAware
16:40 38.8700 -122.6500 193° South 445 512 27,100 -1,860 Descending FlightAware
16:41 38.7600 -122.6760 190° South 420 483 25,400 -2,280 Descending FlightAware
16:41 38.6790 -122.6800 182° South 433 498 23,600 -2,400 Descending FlightAware
16:42 38.5910 -122.6770 178° South 416 479 22,000 -2,100 Descending FlightAware
16:43 38.5190 -122.6760 179° South 415 478 20,800 -1,980 Descending FlightAware
16:43 38.4340 -122.6750 179° South 408 470 19,400 -1,740 Descending FlightAware
16:44 38.3740 -122.6740 179° South 398 458 18,600 -1,620 Descending FlightAware
16:45 38.3060 -122.6740 180° South 390 449 17,600 -1,560 Descending FlightAware
16:45 38.2680 -122.6740 180° South 383 441 17,100 -1,560 Descending FlightAware
16:46 38.2010 -122.6730 179° South 378 435 16,000 -1,740 Descending FlightAware
16:46 38.1370 -122.6720 179° South 372 428 14,900 -1,800 Descending FlightAware
16:47 38.0600 -122.6720 180° South 366 421 13,700 -1,680 Descending FlightAware
16:48 38.0020 -122.6720 180° South 362 417 12,700 -1,740 Descending FlightAware
16:48 37.9350 -122.6720 180° South 356 410 11,500 -1,080 Descending FlightAware
16:49 37.8660 -122.6370 158° South 320 368 11,200 -240 Descending FlightAware
16:50 37.8261 -122.5950 140° Southeast 290 334 11,200  Level FlightAware ADS-B
16:50 37.7933 -122.5590 139° Southeast 267 307 11,200  Level FlightAware ADS-B
16:51 37.7624 -122.5260 140° Southeast 265 305 11,200  Level FlightAware ADS-B
16:51 37.7328 -122.4940 139° Southeast 265 305 11,200  Level FlightAware ADS-B
16:52 37.7044 -122.4640 140° Southeast 265 305 11,200  Level FlightAware ADS-B
16:52 37.6689 -122.4260 140° Southeast 265 305 11,200  Level FlightAware ADS-B
16:53 37.6405 -122.3960 140° Southeast 265 305 11,200  Level FlightAware ADS-B
16:53 37.6266 -122.3840 146° Southeast 265 305 11,200  Level FlightAware ADS-B
16:54 37.5966 -122.3650 153° Southeast 264 304 11,200 -660 Level FlightAware ADS-B
16:54 37.5638 -122.3450 154° Southeast 259 298 10,600 -1,440 Descending FlightAware ADS-B
16:54 37.5402 -122.3310 155° Southeast 259 298 10,000 -1,620 Descending FlightAware ADS-B
16:55 37.5229 -122.3200 153° Southeast 258 297 9,600 -1,380 Descending FlightAware ADS-B
16:55 37.5019 -122.3090 157° South 255 293 9,200 -1,140 Descending FlightAware ADS-B
16:55 37.4843 -122.2980 154° Southeast 234 269 8,900 -1,140 Descending FlightAware ADS-B
16:56 37.4697 -122.2890 154° Southeast 224 258 8,600 -1,200 Descending FlightAware ADS-B
16:56 37.4557 -122.2810 156° South 218 251 8,300 -1,200 Descending FlightAware ADS-B
16:56 37.4421 -122.2730 155° Southeast 214 246 8,000 -1,200 Descending FlightAware ADS-B
16:56 37.4382 -122.2700 149° Southeast 214 246 7,900 -780 Descending FlightAware ADS-B
16:56 37.4354 -122.2680 150° Southeast 214 246 7,900 -900 Level FlightAware ADS-B
16:56 37.4327 -122.2640 130° Southeast 214 246 7,800 -2,280 Descending FlightAware ADS-B
16:56 37.4301 -122.2610 138° Southeast 214 246 7,600 -2,040 Descending FlightAware ADS-B
16:56 37.4280 -122.2560 118° Southeast 215 247 7,500 -1,200 Descending FlightAware ADS-B
16:57 37.4253 -122.2500 120° Southeast 213 245 7,400 -1,200 Descending FlightAware ADS-B
16:57 37.4188 -122.2330 116° Southeast 212 244 7,100 -1,380 Descending FlightAware ADS-B
16:57 37.4121 -122.2150 115° Southeast 212 244 6,700 -1,200 Descending FlightAware ADS-B
16:57 37.4056 -122.1990 117° Southeast 212 244 6,500 -960 Descending FlightAware ADS-B
16:57 37.4013 -122.1870 114° Southeast 211 243 6,300 -900 Descending FlightAware ADS-B
16:58 37.3970 -122.1760 116° Southeast 212 244 6,200 -720 Descending FlightAware ADS-B
16:58 37.3937 -122.1670 115° Southeast 212 244 6,100 -1,140 Descending FlightAware ADS-B
16:58 37.3927 -122.1640 113° Southeast 212 244 6,000 -900 Descending FlightAware ADS-B
16:58 37.3918 -122.1600 106° East 213 245 6,000 -720 Level FlightAware ADS-B
16:58 37.3913 -122.1540 96° East 212 244 5,900 -780 Descending FlightAware ADS-B
16:58 37.3915 -122.1490 87° East 211 243 5,900 -780 Level FlightAware ADS-B
16:58 37.3925 -122.1450 73° East 209 241 5,800 -600 Descending FlightAware ADS-B
16:58 37.3946 -122.1380 69° East 206 237 5,800 -720 Level FlightAware ADS-B
16:58 37.3972 -122.1340 51° Northeast 201 231 5,700 -1,500 Descending FlightAware ADS-B
16:58 37.3999 -122.1310 41° Northeast 199 229 5,600 -900 Descending FlightAware ADS-B
16:58 37.4021 -122.1290 36° Northeast 196 226 5,600  Level FlightAware ADS-B
16:58 37.4049 -122.1260 40° Northeast 194 223 5,600 -780 Level FlightAware ADS-B
16:59 37.4143 -122.1200 27° Northeast 196 226 5,400 -960 Descending FlightAware ADS-B
16:59 37.4400 -122.1020 29° Northeast 200 230 4,900 -960 Descending FlightAware ADS-B
16:59 37.4457 -122.0980 29° Northeast 196 226 4,800 -1,200 Descending FlightAware ADS-B
16:59 37.4483 -122.0970 17° North 195 224 4,700 -1,020 Descending FlightAware ADS-B
16:59 37.4510 -122.0960 16° North 192 221 4,700 -1,020 Level FlightAware ADS-B
16:59 37.4538 -122.0950 16° North 190 219 4,600 -1,020 Descending FlightAware ADS-B
16:59 37.4563 -122.0950 360° North 187 215 4,600 -780 Level FlightAware ADS-B
17:00 37.4601 -122.0950 360° North 184 212 4,500 -600 Descending FlightAware ADS-B
17:00 37.4653 -122.0970 343° North 182 209 4,500 -300 Level FlightAware ADS-B
17:00 37.4794 -122.1010 347° North 188 216 4,400 -600 Descending FlightAware ADS-B
17:00 37.4933 -122.1050 347° North 187 215 4,200 -540 Descending FlightAware ADS-B
17:00 37.4989 -122.1070 344° North 188 216 4,200 -480 Level FlightAware ADS-B
17:00 37.5036 -122.1090 341° North 186 214 4,100 -600 Descending FlightAware ADS-B
17:01 37.5119 -122.1210 311° West 184 212 4,000 -420 Descending FlightAware ADS-B
17:01 37.5180 -122.1350 299° West 184 212 3,900 -540 Descending FlightAware ADS-B
17:01 37.5214 -122.1440 295° West 179 206 3,800 -600 Descending FlightAware ADS-B
17:01 37.5260 -122.1550 298° West 183 211 3,700 -900 Descending FlightAware ADS-B
17:01 37.5320 -122.1690 298° West 184 212 3,400 -1,140 Descending FlightAware ADS-B
17:02 37.5367 -122.1790 301° West 184 212 3,200 -900 Descending FlightAware ADS-B
17:02 37.5406 -122.1890 296° West 183 211 3,100 -840 Descending FlightAware ADS-B
17:02 37.5458 -122.2010 299° West 179 206 2,900 -900 Descending FlightAware ADS-B
17:02 37.5482 -122.2080 293° West 178 205 2,800 -1,140 Descending FlightAware ADS-B
17:02 37.5520 -122.2160 301° West 166 191 2,600 -1,140 Descending FlightAware ADS-B
17:02 37.5543 -122.2210 300° West 165 190 2,500 -720 Descending FlightAware ADS-B
17:03 37.5583 -122.2310 297° West 174 200 2,400 -840 Descending FlightAware ADS-B
17:03 37.5623 -122.2400 299° West 174 200 2,200 -960 Descending FlightAware ADS-B
17:03 37.5680 -122.2540 297° West 168 193 2,000 -840 Descending FlightAware ADS-B
17:03 37.5735 -122.2670 298° West 161 185 1,800 -900 Descending FlightAware ADS-B
17:04 37.5774 -122.2770 296° West 153 176 1,600 -960 Descending FlightAware ADS-B
17:04 37.5820 -122.2880 298° West 146 168 1,400 -780 Descending FlightAware ADS-B
17:04 37.5874 -122.3000 300° West 142 163 1,200 -780 Descending FlightAware ADS-B
17:04 37.5919 -122.3110 297° West 142 163 1,000 -780 Descending FlightAware ADS-B
17:05 37.5975 -122.3240 299° West 141 162 800 -720 Descending FlightAware ADS-B
17:05 37.5997 -122.3290 299° West 141 162 700 -900 Descending FlightAware ADS-B
17:05 37.6018 -122.3350 294° West 140 161 600 -660 Descending FlightAware ADS-B
17:05 37.6056 -122.3430 301° West 139 160 500 -720 Descending FlightAware ADS-B
17:05 37.6098 -122.3530 298° West 137 158 300 -600 Descending FlightAware ADS-B
17:05 37.6115 -122.3570 298° West 139 160 300  Level FlightAware ADS-B
17:06 37.6169 -122.3710 296° West 100 115 -900 Descending FlightAware ADS-B
17:06 37.6190 -122.3760 298° West 70 81  Level FlightAware ADS-B